This demonstration page uses our WeatherBlox Daily Observations layout. Learn more.

Left ArrowRight Arrow

Hourly Observations for January 12, 2022

Temp ( °F °C ) Dew Point ( °F °C ) Humidity (%) Winds ( mph kmh ) Pressure ( in mb ) Visibility ( mi km ) Precip ( " mm )
12:53 am 00:53 Clear 39 3.9 20 -6.7 46 46 SE 6 9 30.26 1025 10 16 0.00 0.00
1:53 am 01:53 Clear 38 3.3 21 -6.1 51 51 SE 6 9 30.25 1024 10 16 0.00 0.00
2:53 am 02:53 Clear 37 2.8 20 -6.7 50 50 ESE 3 6 30.24 1024 10 16 0.00 0.00
3:53 am 03:53 Clear 36 2.2 20 -6.7 52 52 NNE 5 7 30.23 1024 10 16 0.00 0.00
4:53 am 04:53 Clear 34 1.1 20 -6.7 56 56 N 7 11 30.23 1024 10 16 0.00 0.00
5:53 am 05:53 Clear 30 -1.1 18 -7.8 61 61 Calm 30.23 1024 10 16 0.00 0.00
6:53 am 06:53 Clear 31 -0.6 18 -7.8 59 59 Calm 30.23 1024 10 16 0.00 0.00
7:53 am 07:53 Clear 26 -3.3 16 -8.9 66 66 N 9 15 30.28 1025 10 16 0.00 0.00
8:53 am 08:53 Sunny 33 0.6 19 -7.2 56 56 N 5 7 30.29 1026 10 16 0.00 0.00
9:53 am 09:53 Sunny 41 5 21 -6.1 45 45 N 3 6 30.29 1026 10 16 0.00 0.00
10:53 am 10:53 Sunny 49 9.4 21 -6.1 33 33 WNW 3 6 30.29 1026 10 16 0.00 0.00
11:53 am 11:53 Sunny 56 13.3 23 -5 28 28 W 9 15 30.26 1025 10 16 0.00 0.00
12:53 pm 12:53 Sunny 59 15 24 -4.4 26 26 W 13 20 30.22 1024 10 16 0.00 0.00
1:53 pm 13:53 Sunny 62 16.7 24 -4.4 23 23 WSW 13 20 30.18 1022 10 16 0.00 0.00
2:53 pm 14:53 Sunny 65 18.3 23 -5 20 20 W 9 15 30.15 1021 10 16 0.00 0.00
3:53 pm 15:53 Sunny 66 18.9 23 -5 19 19 WSW 10 17 30.14 1021 10 16 0.00 0.00
4:53 pm 16:53 Sunny 66 18.9 23 -5 19 19 W 9 15 30.15 1021 10 16 0.00 0.00
5:53 pm 17:53 Sunny 63 17.2 20 -6.7 19 19 WNW 6 9 30.16 1021 10 16 0.00 0.00
6:53 pm 18:53 Clear 55 12.8 19 -7.2 24 24 NNW 5 7 30.19 1022 10 16 0.00 0.00
7:53 pm 19:53 Clear 52 11.1 20 -6.7 28 28 NNE 5 7 30.21 1023 10 16 0.00 0.00
8:53 pm 20:53 Clear 48 8.9 18 -7.8 30 30 Calm 30.22 1023 10 16 0.00 0.00
9:53 pm 21:53 Clear 41 5 17 -8.3 38 38 WNW 6 9 30.24 1024 10 16 0.00 0.00
10:53 pm 22:53 Clear 39 3.9 17 -8.3 41 41 NNW 8 13 30.24 1024 10 16 0.00 0.00
11:53 pm 23:53 Clear 35 1.7 16 -8.9 46 46 NNW 7 11 30.23 1024 10 16 0.00 0.00

Powered by AerisWeather